Location: Grospierres
(44.3992°N, 4.2897°E)
Time: 06:32:59
(UTC+00:00)

Daily predictions for brighter satellites

Satellite Brightness Start Highest point End
(mag) Time Altitude Azimuth Time Altitude Azimuth Time Altitude Azimuth
Aureole 3 4.1 18:37:39 10° S 18:42:21 68° E 18:48:24 10° NNE
GEOS 3 Rocket 3.7 18:37:21 10° SE 18:42:28 79° NE 18:47:44 10° NW
Cosmos 1709 Rocket 4.3 18:36:33 10° NNW 18:42:43 74° W 18:48:47 10° S
ARGOS Delta rocket 4.2 18:37:47 10° SSE 18:43:01 63° ENE 18:48:26 10° N
Cosmos 407 Rocket 4.5 18:39:20 10° SSE 18:43:23 24° E 18:47:26 10° NE
Cosmos 1992 Rocket 4.0 18:40:19 10° NNW 18:45:34 86° ENE 18:50:46 10° SSE
Cosmos 2228 3.9 18:43:28 10° SSE 18:47:09 29° E 18:50:54 10° NNE
Cosmos 1626 4.1 18:46:06 10° NNW 18:49:27 33° W 18:52:48 10° SSW
Cosmos 1758 Rocket 3.8 18:46:00 10° N 18:50:13 46° ENE 18:54:21 10° SSE
Cosmos 1603 3.7 18:44:37 10° SSW 18:50:15 85° ESE 18:55:53 10° NNE
Cosmos 1461 4.5 18:47:42 10° NNW 18:51:29 25° NE 18:55:20 10° E
STARLINK-29 4.3 18:53:23 10° S 18:55:51 21° SE 18:58:20 10° E
SJ-6B 3.6 18:52:21 10° SE 18:56:08 36° ENE 18:59:57 10° N
STARLINK-60 3.2 18:54:32 10° SW 18:57:42 49° SE 19:00:54 10° ENE
Cosmos 1953 Rocket 4.4 18:53:59 10° N 18:58:05 33° ENE 19:02:08 10° SE
Cosmos 1606 Rocket 4.0 18:53:57 10° SSE 18:58:05 41° E 19:02:17 10° NNE
ATLAS 5 CENTAUR R/B 2.4 18:54:45 10° S 18:58:09 25° ESE 19:01:48 10° ENE
Cosmos 2074 Rocket 4.1 18:53:30 10° N 18:59:44 62° E 19:05:57 10° SSE
ADEOS Rocket 4.0 18:56:17 10° N 19:02:26 52° WNW 19:08:00 10° SW
Meteor 1-16 Rocket 4.2 18:57:16 10° S 19:02:32 59° E 19:08:00 10° NNE
Cosmos 1818 3.5 18:57:34 10° SSW 19:02:59 81° ESE 19:08:28 10° NE
SL-8 R/B 4.4 19:01:24 10° WNW 19:06:00 48° SSW 19:10:34 10° SE
Abrixas rocket 3.1 19:06:05 10° WNW 19:08:52 36° N 19:11:30 11° ENE
ISS -1.2 19:07:10 10° W 19:09:23 17° SW 19:11:35 10° S
Cosmos 1943 Rocket 3.4 19:06:56 10° NW 19:12:08 42° WSW 19:17:20 10° S
NOSS 3-4 (A) 4.0 19:06:49 10° NNW 19:13:43 61° NE 19:20:33 13° SE
Meteor 1-21 Rocket 4.5 19:08:11 10° NNW 19:13:43 72° W 19:19:13 10° S
NOSS 3-4 (C) 4.0 19:06:55 10° NNW 19:13:49 61° NE 19:20:38 13° SE
FALCON 9 DEB 3.9 19:14:34 10° SSW 19:17:42 31° SE 19:20:15 14° ENE
Cosmos 1300 4.3 19:17:23 16° E 19:18:02 16° E 19:20:29 10° NE
SL-4 R/B 1.9 19:15:06 10° WSW 19:18:29 66° NNW 19:21:55 10° NE
MOS 1 4.3 19:16:01 10° SSE 19:21:40 86° ENE 19:27:22 10° NNW
Cosmos 2369 Rocket 3.2 19:16:21 10° NW 19:21:47 47° WSW 19:27:08 10° S
Cosmos 1340 Rocket 3.4 19:18:44 10° SSE 19:22:28 36° E 19:26:11 10° NNE
MOS 1 Rocket 4.2 19:18:50 10° NNE 19:23:47 36° E 19:28:44 10° SSE
H-2A R/B 4.5 19:19:23 10° WSW 19:24:19 13° SW 19:27:07 10° SSW
H-2A R/B 2.2 19:20:13 10° S 19:25:26 77° WSW 19:30:32 10° NNW
STARLINK-67 3.5 19:23:42 10° NW 19:26:05 33° NNE 19:27:09 23° ENE
CZ-2C R/B 3.9 19:21:39 10° NNE 19:26:14 50° E 19:30:42 10° S
Cosmos 1703 3.2 19:22:26 10° N 19:26:24 72° E 19:30:22 10° SSE
Cosmos 1328 3.7 19:23:03 10° N 19:27:04 70° E 19:31:03 10° SSE
CZ-2C R/B 3.0 19:23:19 10° S 19:28:12 79° WSW 19:32:59 10° NNW
Cosmos 1437 3.9 19:29:29 10° NNW 19:32:23 41° W 19:35:13 10° SSW
Cosmos 1908 3.1 19:32:15 10° S 19:36:06 86° E 19:40:00 10° N
SL-08 RB Rocket 3.6 19:31:40 10° SSE 19:36:13 84° ENE 19:40:51 10° NNW
STARLINK-52 3.3 19:33:11 10° SSW 19:36:15 42° SE 19:37:28 28° E
Resurs 1-3 3.7 19:37:16 19° SE 19:40:18 56° ENE 19:44:36 10° N
USA 234 3.8 19:37:35 10° ENE 19:43:27 35° SE 19:49:18 10° SSW
ATLAS 2AS CENTAUR R/B 2.8 19:38:30 10° NW 19:46:08 88° WSW 19:51:22 19° SSE
Cosmos 1943 4.4 19:40:54 10° SW 19:46:20 46° WNW 19:51:49 10° NNE
STARLINK-1228 3.7 19:43:36 10° NW 19:46:25 37° NNE 19:47:07 31° ENE
Ariane Rocket 4.2 19:41:39 10° S 19:46:26 42° W 19:51:14 10° NNW
Cosmos 1140 Rocket 3.4 19:45:44 10° S 19:50:53 70° ESE 19:56:03 10° NNE
Cosmos 1726 4.3 19:48:02 10° SW 19:51:20 29° WNW 19:54:38 10° NNW
Cosmos 1656 Rocket 4.4 19:50:01 10° NW 19:55:29 52° WSW 20:00:47 10° S
Cosmos 2341 Rocket 4.1 19:49:31 10° N 19:55:50 59° ENE 19:59:56 23° SSE
Cosmos 1190 Rocket 4.0 19:52:00 10° SSW 19:57:19 90° WNW 20:02:39 10° NNE
Cosmos 2058 Rocket 3.1 19:53:28 10° S 19:57:59 89° WSW 20:02:32 10° N
Spot 2 Rocket 4.3 19:56:54 29° E 19:58:26 35° ENE 20:03:02 10° N
Meteor 1-11 4.4 19:53:52 10° NNW 19:59:38 78° W 20:04:59 12° S
MetOp-A 4.2 19:55:38 14° SSE 20:00:17 82° WSW 20:05:41 10° NNW
DMSP B5D2-2 4.0 19:56:20 10° NNE 20:01:35 82° ESE 20:06:49 10° SSW
CZ-2C R/B 2.4 19:57:04 10° NNE 20:02:14 71° ESE 20:07:26 10° S
COSMOS 2455 2.9 19:56:16 10° NNW 20:02:18 67° NE 20:05:12 31° SE
ARGOS 4.4 20:01:45 10° SSW 20:06:48 41° W 20:11:52 10° NNW
Cosmos 2218 Rocket 4.3 20:04:10 10° N 20:10:09 46° ENE 20:12:18 34° ESE
Resurs 01 Rocket 1.5 20:08:30 36° SSE 20:10:15 81° ENE 20:14:41 10° N
ERBS 4.1 20:09:19 10° NNW 20:12:03 22° NNE 20:12:22 22° NE
BREEZE-M DEB (TANK) 3.0 20:11:14 10° W 20:14:40 32° NNW 20:15:10 28° N
STARLINK-1209 3.5 20:14:37 10° NW 20:16:57 49° NNW 20:16:57 49° NNW
STARLINK-1234 3.5 20:17:17 10° NW 20:19:47 53° NNW 20:19:47 53° NNW
STARLINK-1233 3.6 20:17:14 10° NW 20:19:56 47° N 20:19:56 47° N
Cosmos 921 Rocket 3.1 20:16:23 10° NNW 20:20:33 70° WSW 20:21:45 44° S
STARLINK-1212 3.7 20:17:42 10° NW 20:20:21 47° N 20:20:21 47° N
STARLINK-1105 3.7 20:18:08 10° NW 20:20:48 47° N 20:20:48 47° N
STARLINK-1206 3.7 20:18:37 10° NW 20:21:13 46° N 20:21:13 46° N
STARLINK-1247 3.7 20:19:04 10° NW 20:21:39 46° N 20:21:39 46° N
STARLINK-1227 3.7 20:19:28 10° NW 20:22:06 47° N 20:22:06 47° N
STARLINK-1218 3.7 20:19:58 10° NW 20:22:31 46° N 20:22:31 46° N
Cosmos 962 Rocket 4.5 20:17:07 10° N 20:23:17 81° W 20:27:13 24° S
STARLINK-1226 3.7 20:20:25 10° NW 20:22:58 46° NNW 20:22:58 46° NNW
STARLINK-1254 3.7 20:20:50 10° NW 20:23:24 47° NNW 20:23:24 47° NNW
STARLINK-1215 3.8 20:21:19 10° NW 20:23:49 45° NNW 20:23:49 45° NNW
Cosmos 2181 Rocket 3.9 20:20:34 24° S 20:24:30 70° E 20:30:40 10° NNE
STARLINK-1231 3.8 20:21:46 10° NW 20:24:15 45° NNW 20:24:15 45° NNW
STARLINK-1232 3.8 20:22:41 10° NW 20:25:08 45° NNW 20:25:08 45° NNW
Cosmos 676 Rocket 4.0 20:20:47 10° SSW 20:26:05 84° WNW 20:31:23 10° NNE
STARLINK-1217 3.8 20:23:07 10° NW 20:25:33 45° NNW 20:25:33 45° NNW
SL-8 Rocket 3.9 20:20:17 10° N 20:26:37 73° E 20:29:13 38° SSE
STARLINK-1208 3.8 20:23:31 10° NW 20:26:00 45° NNW 20:26:00 45° NNW
BREEZE-M DEB (TANK) 3.3 20:22:24 10° WNW 20:26:31 59° WSW 20:26:31 59° WSW
STARLINK-1229 3.9 20:24:01 10° NW 20:26:25 44° NNW 20:26:25 44° NNW
ERS-1 Rocket 3.8 20:27:20 32° ENE 20:27:25 32° ENE 20:31:51 10° N
STARLINK-1271 3.9 20:24:27 10° NW 20:26:52 44° NNW 20:26:52 44° NNW
STARLINK-1270 3.9 20:24:55 10° NW 20:27:17 43° NNW 20:27:17 43° NNW
STARLINK-1154 3.9 20:25:22 10° NW 20:27:43 43° NNW 20:27:43 43° NNW
Cosmos 1812 Rocket 3.8 20:29:45 50° ENE 20:29:45 50° ENE 20:33:22 10° NNE
STARLINK-1197 4.0 20:26:16 10° NW 20:28:35 43° NNW 20:28:35 43° NNW
STARLINK-1189 4.0 20:26:43 10° NW 20:29:01 42° NNW 20:29:01 42° NNW
STARLINK-1198 4.0 20:27:10 10° NW 20:29:27 42° NNW 20:29:27 42° NNW
STARLINK-1188 4.1 20:27:37 10° NW 20:29:53 42° NNW 20:29:53 42° NNW
Cosmos 1461 3.7 20:26:24 10° NW 20:30:49 51° WSW 20:32:00 40° SSW
Cosmos 1980 Rocket 4.2 20:28:13 10° N 20:31:14 14° NE 20:32:34 13° ENE
STARLINK-1239 4.4 20:27:25 10° NW 20:31:22 41° NNE 20:31:48 39° NE
STARLINK-1235 4.0 20:28:14 10° NW 20:30:32 45° NW 20:30:32 45° NW
STARLINK-29 3.9 20:28:39 10° WSW 20:31:20 46° WNW 20:31:20 46° WNW
STARLINK-1187 4.0 20:28:40 10° NW 20:30:59 44° NW 20:30:59 44° NW
STARLINK-1199 4.1 20:29:32 10° NW 20:31:48 41° NW 20:31:48 41° NW
STARLINK-1191 4.1 20:30:01 10° NW 20:32:15 41° NW 20:32:15 41° NW
Cosmos 1892 3.9 20:29:27 10° N 20:32:00 32° NE 20:32:00 32° NE
SPOT 5 4.1 20:34:13 24° NE 20:34:13 24° NE 20:36:58 10° N
STARLINK-1210 4.2 20:30:27 10° NW 20:32:40 40° NW 20:32:40 40° NW
STARLINK-1221 4.2 20:30:54 10° NW 20:33:07 40° NW 20:33:07 40° NW
STARLINK-1219 4.2 20:31:21 10° NW 20:33:32 40° NW 20:33:32 40° NW
STARLINK-1222 4.2 20:31:48 10° NW 20:33:58 39° NW 20:33:58 39° NW
STARLINK-1211 4.3 20:32:15 10° NW 20:34:24 39° NW 20:34:24 39° NW
STARLINK-1214 4.3 20:32:42 10° NW 20:34:50 39° NW 20:34:50 39° NW
STARLINK-1245 4.3 20:33:12 10° NW 20:35:16 37° NW 20:35:16 37° NW
STARLINK-1240 4.3 20:32:25 10° NW 20:36:23 43° NNE 20:36:36 42° NNE
STARLINK-1238 4.3 20:33:36 10° NW 20:35:43 38° NW 20:35:43 38° NW
STARLINK-1205 4.4 20:34:33 10° NW 20:36:34 36° NW 20:36:34 36° NW
STARLINK-1204 4.4 20:35:00 10° NW 20:36:59 36° NW 20:36:59 36° NW
Cosmos 220 Rocket 4.0 20:34:07 10° NNW 20:38:14 66° NE 20:38:14 66° NE
Cosmos 2366 rocket 3.9 20:33:20 10° N 20:39:30 73° E 20:41:05 51° SSE
STARLINK-1216 4.3 20:37:24 10° NW 20:41:23 45° NNE 20:41:23 45° NNE
Terra 3.3 20:42:27 25° NE 20:42:27 25° NE 20:45:36 10° N
ATLAS 5 CENTAUR R/B 2.9 20:38:33 10° WSW 20:42:30 39° NW 20:46:56 10° NNE
Abrixas rocket 4.3 20:41:42 10° WNW 20:43:05 25° WNW 20:43:05 25° WNW
Cosmos 1959 Rocket 4.4 20:39:37 10° N 20:45:58 83° E 20:47:43 51° SSE
STARLINK-1237 4.3 20:42:21 10° NW 20:46:09 47° NNE 20:46:09 47° NNE
STARLINK-1202 4.3 20:47:20 10° NW 20:50:57 48° N 20:50:57 48° N
Cosmos 2058 3.3 20:47:25 10° N 20:50:47 59° N 20:50:47 59° N
Cosmos 192 4.2 20:47:11 10° NNW 20:52:09 82° ENE 20:52:09 82° ENE
SPOT 1/Viking Rocket 3.5 20:52:37 69° E 20:52:44 69° ENE 20:57:56 10° N
Cosmos 1300 4.2 20:52:16 28° WSW 20:53:24 35° WNW 20:56:56 10° N
Cosmos 1741 Rocket 4.3 20:54:59 53° ENE 20:54:59 53° ENE 20:59:16 10° NNE
RESURS DK-1 4.0 20:50:43 10° N 20:53:17 26° NNE 20:53:17 26° NNE
SL-4 R/B 3.6 20:55:34 10° WNW 20:58:16 25° NNW 20:58:16 25° NNW
Cosmos 1076 Rocket 3.9 20:55:21 10° NNW 20:59:02 62° NW 20:59:02 62° NW
In-Cosmos 22 Rocket 4.4 20:55:22 10° NNW 21:01:12 72° W 21:02:23 56° SSW
STARLINK-1203 4.5 20:58:08 10° NW 21:01:25 49° NNW 21:01:25 49° NNW
Cosmos 1833 Rocket 4.4 21:13:43 20° NE 21:13:43 20° NE 21:15:32 10° NE
Cosmos 1763 Rocket 3.5 21:05:50 10° NNW 21:10:29 71° N 21:10:29 71° N
Cosmos 489 Rocket 4.4 21:08:28 10° NNW 21:14:40 67° ENE 21:14:41 67° ENE
BREEZE M DEB (TANK) 3.6 21:12:37 10° WSW 21:16:30 76° NNW 21:29:36 10° ENE
COSMOS 2406 3.6 21:21:00 53° NE 21:21:00 53° NE 21:25:19 10° NNE
Cosmos 540 Rocket 4.3 21:15:25 10° N 21:19:20 42° NNE 21:19:20 42° NNE
Cosmos 1821 Rocket 4.1 21:14:32 10° N 21:20:35 62° ENE 21:20:35 62° ENE
Meteor 2-10 Rocket 4.1 21:23:20 50° NNE 21:23:20 50° NNE 21:27:20 10° NNE
SL-08 R/B 4.4 21:18:33 10° N 21:24:42 77° W 21:25:05 74° SW
Iridium 4 Rocket 4.4 21:21:38 10° NNW 21:24:45 36° WNW 21:24:45 36° WNW
USA 234 3.3 21:20:16 10° NE 21:26:47 75° NW 21:33:19 10° WSW
USA 32 4.4 21:26:53 10° N 21:31:15 60° NNW 21:31:15 60° NNW
CZ-4C R/B 3.4 21:34:11 10° NNW 21:41:00 48° NE 21:42:00 46° ENE
Cosmos 2369 4.2 21:35:35 10° NNW 21:40:06 54° N 21:40:06 54° N
Cosmos 1697 Rocket 3.2 21:41:19 10° NNW 21:45:47 55° N 21:45:47 55° N
Cosmos 841 Rocket 4.3 21:43:05 10° NNW 21:46:53 48° NNW 21:46:53 48° NNW
Mayak 1.5 21:47:21 10° NNE 21:47:47 13° NNE 21:47:47 13° NNE
ATLAS CENTAUR R/B 4.0 21:51:59 10° NNW 21:52:56 16° NNW 21:52:56 16° NNW
SL-16 R/B 4.0 22:00:34 10° N 22:04:14 21° NE 22:04:14 21° NE
Cosmos 2322 Rocket 4.1 22:09:04 10° N 22:12:34 21° NE 22:12:34 21° NE
Cosmos 1980 Rocket 3.3 22:10:40 10° NNW 22:14:19 41° N 22:14:19 41° N
Terra 3.8 22:21:20 25° NW 22:21:20 25° NW 22:23:42 10° NNW
Cosmos 2082 Rocket 3.7 22:45:47 31° N 22:45:47 31° N 22:48:47 10° NNE
Cosmos 1833 Rocket 4.3 22:55:21 31° NNW 22:55:21 31° NNW 22:59:24 10° N
Cosmos 2344 4.3 22:47:27 10° NW 22:57:16 88° SW 22:58:33 76° SSE
CZ-4C R/B 3.9 23:22:43 10° NW 23:27:10 37° WNW 23:27:10 37° WNW
SL-16 R/B 4.1 23:43:55 10° NNW 23:46:05 24° NNW 23:46:05 24° NNW
Cosmos 2360 Rocket 3.9 23:47:34 10° NNW 23:50:15 28° N 23:50:15 28° N
